Date,TemperatureHighF,TemperatureAvgF,TemperatureLowF,DewpointHighF,DewpointAvgF,DewpointLowF,HumidityHigh,HumidityAvg,HumidityLow,PressureMaxIn,PressureMinIn,WindSpeedMaxMPH,WindSpeedAvgMPH,GustSpeedMaxMPH,PrecipitationSumIn
2013-8-20,76,74,70,72,71,70,100,91,81,27.88,27.85,3,1,8,0.00
2013-8-22,81,70,64,69,65,62,97,86,66,29.88,29.80,4,1,9,0.00
2013-8-23,78,65,53,64,59,51,97,81,56,30.06,29.83,4,1,10,0.00
2013-8-24,79,56,48,59,52,47,100,85,50,30.24,30.06,4,0,6,0.00
2013-8-25,78,63,48,66,58,48,100,84,60,30.27,27.91,7,2,13,0.00
2013-8-26,74,64,58,69,62,56,100,93,82,30.12,29.85,4,2,12,0.37
2013-8-27,83,68,61,74,65,61,100,93,71,29.88,29.77,3,1,9,0.54
2013-8-28,90,67,59,76,65,59,100,93,62,29.88,29.80,7,1,12,0.00
2013-8-29,84,68,59,73,65,59,100,92,67,29.97,29.85,6,1,8,0.00
2013-8-30,86,69,60,72,65,60,100,87,61,29.94,29.77,6,1,10,0.00
2013-8-31,83,69,61,75,67,61,100,94,76,29.83,29.71,8,2,17,0.67
2013-9-1,88,70,61,78,68,61,100,93,72,29.83,29.77,6,1,10,0.00
2013-9-2,80,68,60,75,66,60,100,96,79,29.77,29.65,5,1,13,0.58
2013-9-3,74,62,56,62,58,55,100,90,62,29.80,29.65,6,2,13,0.58
2013-9-4,76,63,54,62,56,53,100,81,54,29.88,29.77,7,2,14,0.58
2013-9-5,70,59,44,59,50,39,100,76,46,30.03,29.83,6,2,14,0.58
2013-9-6,69,51,35,48,42,35,100,76,45,30.12,29.97,7,1,9,0.58
2013-9-7,75,58,44,57,51,43,97,80,46,30.00,29.80,8,1,11,0.00
2013-9-8,72,59,42,65,53,38,100,83,53,29.97,29.71,6,2,13,0.13
2013-9-9,72,54,36,58,47,36,100,80,46,30.09,29.97,6,3,12,0.00
2013-9-10,80,68,60,75,66,58,100,95,83,30.06,29.94,8,3,13,0.33
2013-9-11,91,74,63,80,71,63,100,90,62,30.03,29.91,7,3,11,1.67
2013-9-12,83,69,60,76,66,60,100,93,76,29.94,29.65,3,3,3,0.24
2013-9-13,62,56,45,60,55,45,100,96,82,29.77,29.59,0,0,0,0.00
2013-9-14,60,48,40,50,44,40,100,89,66,29.97,29.77,6,1,11,0.46
2013-9-15,68,51,36,54,44,36,100,82,46,30.06,29.94,6,2,13,0.04
2013-9-16,64,52,42,57,49,41,100,91,73,30.12,29.88,6,1,11,0.05
2013-9-17,63,47,35,46,40,34,100,78,47,30.27,30.12,7,2,11,0.00
2013-9-18,74,53,37,54,45,37,100,80,45,30.18,30.00,6,1,9,0.00
2013-9-19,81,58,42,58,50,42,100,78,40,30.06,29.91,4,1,6,0.00
2013-9-20,78,61,45,64,55,45,100,82,54,29.94,29.77,7,2,11,0.00
2013-9-21,70,61,53,59,56,46,100,85,43,29.94,29.65,14,6,24,0.29
2013-9-22,60,51,44,54,47,40,100,88,68,29.88,29.62,7,3,13,0.04
2013-9-23,60,47,36,46,40,35,97,79,55,30.00,29.88,6,2,14,0.00
2013-9-24,69,50,34,48,41,34,100,76,41,30.00,29.85,7,2,11,0.00
2013-9-25,73,53,36,56,46,36,100,82,47,29.94,29.85,6,1,10,0.00
2013-9-26,68,53,43,58,49,43,100,87,54,30.09,29.91,5,1,9,0.00
2013-9-27,70,52,40,58,49,40,100,89,65,30.21,30.09,6,1,10,0.00
2013-9-28,72,55,42,57,48,42,100,80,46,30.30,30.18,6,2,10,0.00
2013-9-29,74,56,44,60,50,44,100,86,49,30.18,30.03,7,1,10,0.00
2013-9-30,74,56,43,59,49,43,100,81,45,30.06,29.91,6,1,10,0.00
2013-10-1,76,57,43,61,52,43,100,86,58,30.00,29.91,6,1,18,0.00
2013-10-2,74,60,50,64,56,46,100,86,64,30.03,29.91,10,3,16,0.00
2013-10-3,76,58,44,56,46,40,100,69,33,30.12,30.00,7,1,9,0.00
2013-10-4,76,63,53,67,59,48,100,87,70,30.06,29.97,9,1,13,0.21
2013-10-5,75,64,58,67,62,58,100,93,74,30.09,30.03,7,1,11,0.08
2013-10-6,62,60,56,62,60,56,100,100,97,30.09,30.00,7,3,13,0.21
2013-10-7,66,59,48,65,57,43,100,94,81,30.00,29.68,14,7,29,0.71
2013-10-8,66,51,39,48,42,38,97,73,47,30.30,29.94,9,3,14,0.00
2013-10-9,68,50,37,45,40,34,100,72,40,30.36,30.24,5,2,8,0.00
2013-10-10,59,50,40,43,36,25,94,63,36,30.24,30.09,4,1,6,0.00
2013-10-11,73,58,48,56,38,21,71,48,28,30.12,30.03,7,2,10,0.00
2013-10-12,71,57,45,56,48,36,94,71,52,30.27,30.09,9,3,13,0.00
2013-10-13,68,54,44,54,48,44,100,82,50,30.33,30.21,7,3,15,0.00
2013-10-14,73,55,42,57,50,42,100,86,54,30.30,30.15,6,1,11,0.00
2013-10-15,70,58,50,61,54,50,100,89,65,30.21,30.06,7,2,11,0.00
2013-10-16,63,55,48,55,50,36,96,84,58,30.09,29.85,8,4,11,0.00
2013-10-17,70,60,51,59,52,45,100,79,43,29.88,29.62,12,4,22,0.08
2013-10-18,62,52,42,59,45,38,100,79,49,29.88,29.62,11,5,23,0.04
2013-10-19,62,48,38,47,41,36,97,78,48,29.91,29.68,13,4,20,0.00
2013-10-20,56,45,38,46,37,33,96,75,51,29.97,29.68,12,4,22,0.00
2013-10-21,64,50,36,44,38,33,92,67,45,30.03,29.85,11,4,19,0.04
2013-10-22,57,46,34,49,40,29,96,81,55,29.88,29.68,10,3,15,0.00
2013-10-23,53,37,29,35,32,28,100,83,49,29.77,29.56,6,2,13,0.00
2013-10-24,44,36,30,33,29,25,96,77,51,29.83,29.65,11,5,22,0.00
2013-10-25,49,36,31,36,31,28,97,81,57,30.06,29.83,8,4,15,0.00
2013-10-26,46,38,29,33,28,25,100,71,49,30.06,29.74,19,6,29,0.00
2013-10-27,48,39,35,34,31,29,96,75,57,30.00,29.74,10,4,17,0.00
2013-10-28,52,38,29,38,31,25,86,77,57,30.21,29.97,9,2,19,0.00
2013-10-29,49,36,29,33,25,18,88,66,40,30.30,30.21,7,1,9,0.00
2013-10-30,60,42,32,46,36,21,100,80,57,30.18,30.06,6,2,12,0.00
2013-10-31,57,48,36,57,48,36,100,99,95,30.12,29.71,17,5,29,0.33
2013-11-1,64,57,45,59,52,40,100,85,59,29.71,29.44,24,10,37,0.54
2013-11-2,56,45,38,47,41,37,95,85,65,29.74,29.59,6,2,13,0.00
2013-11-3,41,30,21,40,27,15,100,89,75,30.30,29.74,6,2,10,0.00
2013-11-4,43,29,18,22,16,13,81,60,41,30.48,30.27,6,2,12,0.00
2013-11-5,49,38,25,38,31,13,90,75,59,30.48,30.30,12,4,19,0.00
2013-11-6,54,47,40,49,44,37,96,89,72,30.36,29.91,14,7,23,0.00
2013-11-7,52,43,32,51,41,28,100,93,80,29.94,29.74,12,5,21,0.49
2013-11-8,38,31,30,31,27,25,93,84,70,30.00,29.80,12,4,20,0.00
2013-11-9,43,34,29,30,27,25,95,76,53,30.09,29.83,9,4,16,0.09
2013-11-10,42,37,32,36,32,28,100,82,69,29.91,29.74,11,5,33,0.12
2013-11-11,45,37,31,34,29,26,100,74,53,30.00,29.83,11,5,20,0.00
2013-11-12,34,24,18,34,19,11,100,81,61,30.09,29.83,11,4,24,0.00
2013-11-13,34,22,13,18,14,9,87,71,48,30.18,30.00,9,4,18,0.00
2013-11-14,48,35,23,25,17,12,74,48,37,30.06,29.97,10,4,18,0.00
2013-11-15,59,42,30,25,14,-11,48,35,6,30.12,30.00,8,2,14,0.00
2013-11-16,56,44,32,44,34,18,100,70,39,30.21,30.09,9,3,14,0.00
2013-11-17,55,49,40,54,48,37,100,97,88,30.15,29.68,19,7,34,0.04
2013-11-18,56,48,34,56,39,26,100,73,49,29.71,29.50,18,8,30,0.33
2013-11-19,33,28,22,28,22,17,94,79,67,30.21,29.68,13,6,26,0.00
2013-11-20,41,26,13,19,12,5,87,59,32,30.44,30.21,6,2,13,0.00
2013-11-21,41,33,21,36,23,7,94,68,44,30.44,30.24,10,4,17,0.00
2013-11-22,43,40,37,43,40,36,100,100,96,30.24,29.83,9,3,17,0.13
2013-11-23,36,26,13,36,20,3,100,78,57,29.94,29.74,11,6,23,0.04
2013-11-24,28,13,9,8,2,-1,63,59,41,30.09,29.77,10,6,24,0.00
2013-11-25,38,22,9,19,8,-1,80,55,45,30.21,30.06,9,4,16,0.00
2013-11-26,36,29,22,36,27,9,100,92,52,30.12,29.80,10,4,17,0.29
2013-11-27,46,33,21,46,32,17,100,97,79,29.77,29.38,16,5,28,1.12
2013-11-28,32,17,11,17,8,4,90,68,49,30.24,29.56,12,4,24,0.00
2013-11-29,33,17,8,20,10,1,95,77,52,30.50,30.21,6,2,11,0.00
2013-11-30,35,19,3,24,9,-4,95,68,43,30.50,30.18,10,4,19,0.00
2013-12-1,59,34,23,57,30,23,100,86,63,30.65,27.64,11,2,17,0.04
2013-12-2,40,34,28,39,33,28,100,99,91,30.00,29.89,5,1,8,0.04
2013-12-3,46,33,28,36,30,25,100,89,60,29.98,29.89,6,1,10,0.00
2013-12-4,53,38,26,48,37,26,100,95,72,30.12,29.95,6,2,13,0.04
2013-12-5,55,48,43,55,48,43,100,100,100,30.09,29.95,10,5,17,0.13
2013-12-6,50,34,24,50,33,24,100,98,80,30.15,29.92,6,2,10,0.16
2013-12-7,40,25,15,28,21,12,100,87,58,30.42,30.09,7,3,15,0.04
2013-12-8,28,20,13,22,18,12,100,90,74,30.45,30.30,7,2,11,0.00
2013-12-9,38,29,20,38,29,20,100,100,100,30.30,29.89,13,5,22,0.09
2013-12-10,30,24,17,30,23,12,100,94,77,29.98,29.77,8,4,23,0.00
2013-12-11,23,18,14,18,15,12,100,89,73,30.12,29.95,10,5,17,0.00
2013-12-12,23,12,4,16,5,-6,100,77,57,30.18,29.95,9,4,15,0.00
2013-12-13,24,16,10,18,11,-1,93,82,61,30.21,29.89,12,5,27,0.00
2013-12-14,21,14,11,19,12,9,100,90,77,30.36,29.86,14,4,30,0.00
2013-12-15,29,23,18,29,22,18,100,97,88,29.89,29.53,10,5,25,0.00
2013-12-16,25,14,2,18,7,-4,100,74,57,30.06,29.68,9,4,24,0.00
2013-12-17,23,14,-1,23,11,-7,100,89,74,30.09,29.89,8,2,17,0.00
2013-12-18,35,22,12,28,20,12,100,95,64,30.05,29.86,10,3,20,0.00
2013-12-19,43,31,21,31,25,18,100,81,59,30.09,29.96,10,4,17,0.00
2013-12-20,48,42,34,46,39,31,100,90,64,30.08,29.94,9,4,22,0.34
2013-12-21,57,50,43,55,50,43,100,100,95,30.02,29.90,10,5,19,0.33
2013-12-22,62,58,53,60,57,53,100,97,80,29.99,29.78,16,9,32,0.12
2013-12-23,55,43,26,55,43,24,100,99,88,30.16,29.89,8,2,14,0.42
2013-12-24,33,22,9,25,18,6,100,87,68,30.22,30.04,0,0,0,0.00
2013-12-25,31,14,1,16,7,-2,86,72,52,30.37,30.19,7,0,18,0.00
2013-12-26,26,21,16,25,19,8,100,90,71,30.28,30.01,10,5,14,0.00
2013-12-27,30,24,18,27,22,16,100,94,73,30.22,30.14,10,4,16,0.00
2013-12-28,47,34,20,35,29,20,100,82,61,30.17,30.00,12,4,20,0.00
2013-12-29,42,35,32,36,32,30,100,91,64,30.03,29.56,3,1,7,0.70
2013-12-30,33,20,4,33,17,-1,100,87,68,30.09,29.68,9,4,22,0.05
2013-12-31,22,12,4,18,9,-1,97,85,75,30.09,29.89,10,4,25,0.00
2014-1-1,23,14,8,14,10,7,100,85,60,30.24,30.06,9,3,17,0.00
2014-1-2,16,11,3,14,10,2,100,96,88,30.15,29.68,8,4,12,0.00